DW8032 Weather Reports


Display with metric or nautical units.
time (UTC)temp
F
wind
direction
speed
MPH
gust
MPH
rain 1hr
in
rain 24hr
in
rain mn
in
humidity
%
barometer
mb
20260503172959 58 90 1.0 3.0 0.00 0.00 0.00 32 1020.4
20260503171959 56 271 2.0 4.0 0.00 0.00 0.00 32 1020.4
20260503170959 58 253 1.0 4.0 0.00 0.00 0.00 31 1020.5
20260503131000 47 255 1.0 5.0 0.00 0.00 0.00 55 1020.6
20260503071958 38 280 1.0 3.0 0.00 0.00 0.00 70 1017.6
20260503070958 39 263 1.0 4.0 0.00 0.00 0.00 70 1017.5
20260503054000 40 249 1.0 3.0 0.00 0.00 0.00 66 1017.3
20260503053000 40 245 1.0 3.0 0.00 0.00 0.00 65 1017.4
20260503052000 40 264 1.0 3.0 0.00 0.00 0.00 64 1017.4
20260503050001 41 259 1.0 3.0 0.00 0.00 0.00 63 1017.3
20260503043959 41 245 1.0 2.0 0.00 0.00 0.00 62 1017.2
20260503041959 41 281 1.0 2.0 0.00 0.00 0.00 61 1017.0
20260503040005 42 29 1.0 3.0 0.00 0.00 0.00 61 1016.8
20260503035000 41 298 1.0 2.0 0.00 0.00 0.00 61 1016.7
20260503032000 42 225 0.0 3.0 0.00 0.00 0.00 59 1016.6
20260503031001 42 248 0.0 2.0 0.00 0.00 0.00 59 1016.7
20260503025000 43 207 1.0 3.0 0.00 0.00 0.00 58 1016.5
20260503024001 43 243 1.0 4.0 0.00 0.00 0.00 57 1016.5
20260503023000 43 271 1.0 3.0 0.00 0.00 0.00 56 1016.4
20260503022000 43 221 1.0 3.0 0.00 0.00 0.00 56 1016.2
20260503021000 43 242 0.0 2.0 0.00 0.00 0.00 56 1016.3
20260503020002 44 290 0.0 1.0 0.00 0.00 0.00 55 1016.2
20260503015000 44 269 1.0 4.0 0.00 0.00 0.00 54 1016.1
20260503013001 44 255 1.0 7.0 0.00 0.00 0.00 53 1015.9
20260503012001 45 273 1.0 2.0 0.00 0.00 0.00 52 1015.8
20260503011001 45 287 1.0 2.0 0.00 0.00 0.00 51 1015.6
20260503010002 45 270 1.0 4.0 0.00 0.00 0.00 51 1015.4
20260503005001 45 304 1.0 2.0 0.00 0.00 0.00 51 1015.3
20260503004000 46 307 1.0 4.0 0.00 0.00 0.00 51 1015.3
20260503003000 46 333 2.0 7.0 0.00 0.00 0.00 50 1015.0
20260503002001 46 221 2.0 5.0 0.00 0.00 0.00 48 1014.9
20260503000959 46 332 1.0 3.0 0.00 0.00 0.00 48 1014.7
20260503000002 47 317 1.0 6.0 0.00 0.00 0.00 47 1014.6
20260502235000 47 343 2.0 4.0 0.00 0.00 0.00 46 1014.6
20260502234000 48 293 2.0 5.0 0.00 0.00 0.00 44 1014.5
20260502233001 48 359 2.0 4.0 0.00 0.00 0.00 45 1014.3
20260502231959 48 346 1.0 3.0 0.00 0.00 0.00 44 1014.2
20260502230002 49 273 1.0 3.0 0.00 0.00 0.00 45 1014.2
20260502225001 49 292 1.0 4.0 0.00 0.00 0.00 44 1014.2
20260502224001 49 329 1.0 5.0 0.00 0.00 0.00 42 1014.1
20260502223000 50 343 1.0 4.0 0.00 0.00 0.00 43 1014.2
20260502222000 50 344 2.0 5.0 0.00 0.00 0.00 44 1014.1
20260502221000 50 315 2.0 4.0 0.00 0.00 0.00 42 1014.0
20260502214000 52 330 1.0 4.0 0.00 0.00 0.00 40 1013.5
20260502213002 53 18 2.0 4.0 0.00 0.00 0.00 38 1013.4
20260502211000 55 354 1.0 4.0 0.00 0.00 0.00 37 1013.2
20260502210002 55 295 2.0 5.0 0.00 0.00 0.00 37 1013.2
20260502204959 55 338 2.0 4.0 0.00 0.00 0.00 37 1013.3
20260502204000 54 6 1.0 3.0 0.00 0.00 0.00 37 1013.2
20260502203000 54 139 1.0 4.0 0.00 0.00 0.00 36 1013.3
20260502201959 56 312 2.0 4.0 0.00 0.00 0.00 36 1013.3
20260502201000 56 75 1.0 6.0 0.00 0.00 0.00 35 1013.4
20260502195001 56 323 1.0 4.0 0.00 0.00 0.00 38 1013.4
20260502194000 55 6 1.0 3.0 0.00 0.00 0.00 41 1013.5
20260502193001 55 344 1.0 7.0 0.00 0.00 0.00 43 1013.6
20260502192000 54 276 1.0 2.0 0.00 0.00 0.00 47 1013.7
20260502190959 54 281 1.0 3.0 0.00 0.00 0.00 42 1013.8
20260502190000 54 47 1.0 2.0 0.00 0.00 0.00 49 1013.9
20260502184959 54 249 1.0 2.0 0.00 0.00 0.00 43 1013.9
20260502182959 54 65 1.0 3.0 0.00 0.00 0.00 61 1014.0
20260502180959 55 236 1.0 2.0 0.00 0.00 0.00 55 1013.9